�N����,����,�~����,�C��,���x,�C��,����,���ϕ���,�ő�u�ԕ���,�ő厞����,���˗�,�I�_���x,�n�����x,�ő啗���N��,DTYPE
"19/07/24","00:10",0.0,23.6,95.2,1000.8,310.7,0.7,1.1,319.2,0.00,22.8,25.8,"00:08:48",1
"19/07/24","00:20",0.0,23.6,95.3,1000.5,293.0,0.7,1.3,316.1,0.00,22.8,25.7,"00:12:16",1
"19/07/24","00:30",0.0,23.5,95.4,1000.5,273.3,0.6,1.0,256.4,0.00,22.8,25.5,"00:23:04",1
"19/07/24","00:40",0.0,23.5,95.4,1001.2,316.3,0.8,2.0,345.8,0.00,22.8,25.6,"00:38:00",1
"19/07/24","00:50",0.0,23.4,95.4,1000.8,314.0,1.0,1.8,333.8,0.00,22.7,25.6,"00:41:28",1
"19/07/24","01:00",0.0,23.4,95.5,1000.5,295.5,0.6,1.0,311.5,0.00,22.7,25.6,"00:50:48",1
"19/07/24","01:10",0.0,23.4,95.7,1000.8,271.7,0.5,0.8,260.3,0.00,22.7,25.5,"01:00:24",1
"19/07/24","01:20",0.0,23.3,95.6,1000.3,288.6,0.6,1.0,259.4,0.00,22.6,25.7,"01:16:00",1
"19/07/24","01:30",0.0,23.2,95.8,1001.0,299.2,0.6,1.3,330.8,0.00,22.5,25.3,"01:21:28",1
"19/07/24","01:40",0.0,23.2,95.8,1000.5,304.2,0.6,1.0,318.3,0.00,22.5,25.2,"01:30:56",1
"19/07/24","01:50",0.0,23.4,96.0,1000.8,329.7,0.7,1.0,331.8,0.00,22.8,25.3,"01:45:04",1
"19/07/24","02:00",0.0,23.5,95.9,1000.8,318.3,1.0,1.3,332.4,0.00,22.8,25.2,"01:59:52",1
"19/07/24","02:10",0.0,23.5,95.8,1001.0,302.2,0.8,1.2,330.7,0.00,22.8,25.3,"02:03:28",1
"19/07/24","02:20",0.0,23.4,95.9,1001.2,304.0,1.0,1.7,338.6,0.00,22.7,25.2,"02:18:08",1
"19/07/24","02:30",0.0,23.4,95.8,1001.0,309.7,1.0,1.6,304.0,0.00,22.7,25.4,"02:20:48",1
"19/07/24","02:40",0.0,23.4,95.8,1001.0,330.0,1.1,1.8,339.2,0.00,22.7,25.2,"02:37:20",1
"19/07/24","02:50",0.0,23.4,95.9,1000.8,336.2,1.3,2.6,333.6,0.00,22.7,25.2,"02:48:32",1
"19/07/24","03:00",0.0,23.3,95.8,1000.8,326.2,1.3,2.1,341.0,0.00,22.6,25.1,"02:54:48",1
"19/07/24","03:10",0.0,23.2,95.8,1001.2,302.4,1.0,2.0,329.0,0.00,22.5,25.2,"03:08:08",1
"19/07/24","03:20",0.0,23.1,95.9,1000.5,318.7,1.3,2.2,320.3,0.00,22.4,24.9,"03:16:48",1
"19/07/24","03:30",0.0,23.1,95.9,1000.5,320.5,1.7,2.9,337.5,0.00,22.4,25.2,"03:24:16",1
"19/07/24","03:40",0.0,23.0,96.0,1001.0,307.9,1.2,2.5,309.6,0.00,22.4,25.0,"03:32:00",1
"19/07/24","03:50",0.0,23.0,96.0,1001.2,319.4,1.2,1.8,334.8,0.00,22.4,25.0,"03:48:24",1
"19/07/24","04:00",0.0,23.0,96.0,1000.8,323.7,1.1,2.0,318.0,0.00,22.4,25.0,"03:50:16",1
"19/07/24","04:10",0.0,23.0,96.2,1000.8,329.7,0.8,1.6,330.8,0.00,22.4,24.6,"04:00:08",1
"19/07/24","04:20",0.0,23.1,96.2,1000.8,338.8,1.0,1.6,331.1,0.00,22.5,25.0,"04:16:00",1
"19/07/24","04:30",0.0,23.1,96.1,1000.8,323.1,1.1,1.8,335.2,0.00,22.5,24.8,"04:21:44",1
"19/07/24","04:40",0.0,23.0,96.1,1001.2,327.8,1.1,2.0,334.0,0.00,22.4,24.7,"04:32:08",1
"19/07/24","04:50",0.0,23.0,96.1,1001.0,333.0,1.2,1.9,333.1,0.00,22.4,24.9,"04:40:40",1
"19/07/24","05:00",0.0,23.1,96.2,1001.0,323.6,1.1,2.0,335.2,0.00,22.5,25.0,"04:56:40",1
"19/07/24","05:10",0.0,23.1,96.1,1001.0,330.4,1.1,1.7,334.3,0.00,22.5,24.7,"05:01:28",1
"19/07/24","05:20",0.0,23.1,96.3,1001.0,332.1,1.2,2.2,336.6,0.00,22.5,25.0,"05:14:32",1
"19/07/24","05:30",0.0,23.1,96.1,1001.2,338.8,1.1,2.1,344.9,0.00,22.5,24.9,"05:27:36",1
"19/07/24","05:40",0.0,23.1,96.2,1001.0,319.1,1.0,1.8,338.1,0.00,22.5,24.7,"05:32:16",1
"19/07/24","05:50",0.0,23.4,96.2,1001.0,323.5,1.1,1.7,328.8,0.00,22.8,24.7,"05:42:40",1
"19/07/24","06:00",0.0,23.4,96.3,1001.5,331.3,1.2,2.0,330.6,0.00,22.8,24.6,"05:59:36",1
"19/07/24","06:10",0.0,23.5,96.2,1001.5,323.5,1.1,2.4,331.8,0.00,22.9,24.7,"06:09:20",1
"19/07/24","06:20",0.0,23.5,96.1,1001.5,342.6,1.0,1.8,354.1,0.01,22.9,24.8,"06:15:28",1
"19/07/24","06:30",0.0,23.6,96.1,1001.5,328.7,1.1,1.9,338.2,0.01,23.0,24.7,"06:27:52",1
"19/07/24","06:40",0.0,23.6,96.1,1001.7,330.1,1.2,2.1,337.1,0.02,23.0,24.6,"06:31:12",1
"19/07/24","06:50",0.0,23.9,96.1,1001.9,337.0,0.6,1.8,322.6,0.03,23.3,24.7,"06:47:44",1
"19/07/24","07:00",0.0,24.0,95.8,1001.9,332.2,1.2,2.6,329.1,0.04,23.3,24.8,"06:58:24",1
"19/07/24","07:10",0.0,24.0,95.9,1001.9,335.8,1.5,2.4,320.4,0.04,23.3,24.7,"07:04:00",1
"19/07/24","07:20",0.0,24.2,95.8,1001.7,329.8,1.2,2.8,329.6,0.04,23.5,24.8,"07:13:12",1
"19/07/24","07:30",0.0,24.3,95.5,1001.5,330.8,1.7,3.3,349.0,0.07,23.6,24.8,"07:28:32",1
"19/07/24","07:40",0.0,24.5,95.4,1001.9,337.8,1.7,3.3,346.5,0.06,23.8,25.0,"07:38:32",1
"19/07/24","07:50",0.0,24.6,95.0,1001.9,342.1,1.1,2.7,329.4,0.05,23.8,24.9,"07:41:12",1
"19/07/24","08:00",0.0,24.8,94.7,1001.7,325.6,1.1,2.2,340.4,0.11,23.9,25.1,"07:54:32",1
"19/07/24","08:10",0.0,25.3,94.2,1001.9,324.4,1.5,2.6,340.4,0.15,24.3,25.1,"08:06:32",1
"19/07/24","08:20",0.0,25.4,93.2,1001.9,316.9,1.0,2.6,341.2,0.11,24.3,25.4,"08:18:40",1
"19/07/24","08:30",0.0,25.5,92.1,1001.9,330.3,1.5,2.5,341.6,0.09,24.2,25.2,"08:23:04",1
"19/07/24","08:40",0.0,25.8,91.5,1001.7,331.0,1.1,2.4,335.8,0.11,24.3,25.3,"08:31:20",1
"19/07/24","08:50",0.0,26.1,89.5,1001.9,241.1,0.3,1.3,234.8,0.14,24.3,25.6,"08:46:08",1
"19/07/24","09:00",0.0,26.9,88.3,1001.2,354.4,0.8,2.1,343.0,0.23,24.8,25.4,"08:51:36",1
"19/07/24","09:10",0.0,27.4,86.2,1001.7,21.8,0.8,1.8,11.2,0.32,24.9,25.7,"09:03:28",1
"19/07/24","09:20",0.0,28.0,85.1,1000.8,89.2,0.7,2.4,117.3,0.35,25.3,26.0,"09:11:36",1
"19/07/24","09:30",0.0,28.0,82.9,1001.7,48.3,0.7,1.8,353.9,0.39,24.9,26.0,"09:20:02",1
"19/07/24","09:40",0.0,28.4,80.4,1002.4,16.6,0.6,1.6,355.8,0.41,24.7,26.1,"09:36:08",1
"19/07/24","09:50",0.0,28.5,80.2,1002.4,94.9,0.6,1.8,116.1,0.35,24.8,26.4,"09:47:28",1
"19/07/24","10:00",0.0,29.0,80.1,1002.6,121.1,0.8,1.8,120.2,0.37,25.3,26.6,"09:52:24",1
"19/07/24","10:10",0.0,29.6,79.2,1002.9,87.8,0.8,1.7,19.3,0.46,25.7,26.8,"10:03:52",1
"19/07/24","10:20",0.0,29.3,75.6,1003.1,64.6,1.1,2.2,50.4,0.49,24.6,27.1,"10:14:48",1
"19/07/24","10:30",0.0,30.2,71.3,1003.4,34.7,0.7,2.1,349.9,0.53,24.5,27.2,"10:26:08",1
"19/07/24","10:40",0.0,30.5,74.2,1003.4,129.2,0.6,1.9,123.4,0.44,25.4,27.4,"10:34:32",1
"19/07/24","10:50",0.0,30.5,71.7,1003.4,151.8,1.1,2.2,187.4,0.54,24.8,27.7,"10:47:36",1
"19/07/24","11:00",0.0,30.6,72.5,1003.6,148.0,1.1,2.1,130.5,0.57,25.1,27.9,"10:50:24",1
"19/07/24","11:10",0.0,30.8,73.6,1003.1,193.7,1.2,2.7,215.2,0.53,25.6,28.1,"11:03:12",1
"19/07/24","11:20",0.0,30.6,69.7,1003.1,218.5,2.0,4.3,213.1,0.60,24.5,28.4,"11:16:08",1
"19/07/24","11:30",0.0,30.9,68.2,1003.1,264.1,1.2,3.2,198.8,0.52,24.4,28.7,"11:29:36",1
"19/07/24","11:40",0.0,31.0,67.2,1002.9,252.4,1.0,2.9,187.2,0.61,24.2,28.9,"11:30:08",1
"19/07/24","11:50",0.0,31.7,67.5,1003.1,6.0,0.8,2.4,353.3,0.60,25.0,29.1,"11:46:56",1
"19/07/24","12:00",0.0,31.8,66.3,1003.4,184.5,1.0,3.2,227.2,0.62,24.8,29.1,"11:57:36",1
"19/07/24","12:10",0.0,31.5,65.8,1002.9,234.5,1.1,2.7,224.7,0.59,24.4,29.4,"12:00:56",1
"19/07/24","12:20",0.0,31.8,67.2,1002.6,209.5,1.1,3.2,223.8,0.46,25.0,29.7,"12:17:36",1
"19/07/24","12:30",0.0,32.2,65.6,1002.4,177.4,1.3,2.8,221.8,0.60,25.0,29.7,"12:22:48",1
"19/07/24","12:40",0.0,32.4,64.3,1002.9,155.6,0.8,2.0,219.6,0.51,24.8,30.1,"12:32:48",1
"19/07/24","12:50",0.0,32.8,64.2,1002.9,201.9,1.0,2.5,141.7,0.61,25.2,30.3,"12:40:40",1
"19/07/24","13:00",0.0,32.3,61.7,1002.6,244.1,1.5,4.1,226.0,0.60,24.0,30.5,"12:59:36",1
"19/07/24","13:10",0.0,32.3,64.1,1002.6,175.1,1.7,4.2,127.6,0.59,24.7,30.7,"13:07:44",1
"19/07/24","13:20",0.0,32.5,61.3,1002.4,175.2,1.6,3.4,138.8,0.58,24.1,30.7,"13:10:24",1
"19/07/24","13:30",0.0,32.9,62.8,1002.4,180.4,1.5,3.7,196.3,0.59,24.9,30.4,"13:23:20",1
"19/07/24","13:40",0.0,33.0,59.9,1002.4,206.9,1.6,3.3,224.5,0.59,24.2,30.5,"13:39:12",1
"19/07/24","13:50",0.0,33.4,60.1,1002.4,198.7,1.8,3.6,226.8,0.59,24.6,30.5,"13:45:20",1
"19/07/24","14:00",0.0,33.3,58.7,1002.2,218.1,2.8,4.9,201.7,0.57,24.2,30.7,"13:56:32",1
"19/07/24","14:10",0.0,33.1,57.8,1001.9,204.0,2.5,4.9,229.2,0.55,23.7,30.3,"14:08:00",1
"19/07/24","14:20",0.0,33.3,57.3,1001.9,195.1,1.6,3.4,218.5,0.53,23.8,30.5,"14:13:44",1
"19/07/24","14:30",0.0,33.2,59.6,1002.2,187.3,1.8,5.6,215.4,0.53,24.3,30.6,"14:26:00",1
"19/07/24","14:40",0.0,33.3,57.9,1002.2,210.2,2.6,4.7,204.9,0.52,23.9,30.5,"14:37:52",1
"19/07/24","14:50",0.0,33.1,58.8,1001.7,195.2,2.1,4.4,217.8,0.39,24.0,30.6,"14:46:40",1
"19/07/24","15:00",0.0,33.7,58.5,1001.7,192.4,2.2,4.7,195.0,0.48,24.5,30.5,"14:50:08",1
"19/07/24","15:10",0.0,33.8,59.7,1001.9,210.8,1.5,3.3,214.5,0.47,24.9,30.6,"15:08:24",1
"19/07/24","15:20",0.0,33.4,56.3,1001.7,196.4,1.7,5.7,224.8,0.43,23.6,30.7,"15:17:36",1
"19/07/24","15:30",0.0,34.0,56.2,1001.5,181.5,1.8,3.7,205.1,0.42,24.1,30.8,"15:20:08",1
"19/07/24","15:40",0.0,33.3,56.8,1001.2,186.5,2.2,5.5,226.9,0.40,23.6,30.7,"15:37:04",1
"19/07/24","15:50",0.0,33.0,56.8,1001.0,218.7,1.7,4.2,200.1,0.15,23.3,30.7,"15:40:02",1
"19/07/24","16:00",0.0,32.8,58.6,1000.8,194.4,1.5,2.8,211.6,0.12,23.7,30.4,"15:50:08",1
"19/07/24","16:10",0.0,33.7,54.1,1000.8,204.8,1.3,4.2,198.0,0.36,23.2,30.5,"16:03:04",1
"19/07/24","16:20",0.0,33.4,57.5,1000.8,223.7,1.7,3.5,221.0,0.29,23.9,30.5,"16:12:32",1
"19/07/24","16:30",0.0,32.9,56.9,1001.0,219.5,1.2,3.4,212.7,0.12,23.3,30.5,"16:25:04",1
"19/07/24","16:40",0.0,32.8,58.1,1001.0,256.1,0.6,1.7,322.2,0.11,23.5,30.4,"16:31:36",1
"19/07/24","16:50",0.0,32.3,61.6,1000.5,114.2,1.3,3.5,116.6,0.13,24.0,30.3,"16:47:36",1
"19/07/24","17:00",0.0,32.4,62.6,1000.0,72.0,1.3,2.7,116.7,0.23,24.4,30.4,"16:54:24",1
"19/07/24","17:10",0.0,31.8,63.7,1000.3,76.4,1.0,2.9,115.9,0.08,24.1,30.2,"17:04:48",1
"19/07/24","17:20",0.0,31.2,64.3,1000.3,86.5,1.3,2.6,124.2,0.00,23.7,30.0,"17:13:28",1
"19/07/24","17:30",0.0,30.4,66.5,1000.0,11.9,1.1,2.4,95.7,0.00,23.5,30.2,"17:21:20",1
"19/07/24","17:40",0.0,30.2,68.1,999.6,326.9,0.7,1.8,5.5,0.00,23.7,29.8,"17:32:32",1
"19/07/24","17:50",0.0,29.6,69.9,999.6,349.9,2.1,5.5,50.7,0.00,23.6,29.8,"17:48:48",1
"19/07/24","18:00",0.0,28.3,74.9,999.1,357.3,2.7,5.0,1.1,0.00,23.5,29.4,"17:54:56",1
"19/07/24","18:10",0.0,27.7,77.5,999.6,356.5,2.6,5.5,359.0,0.00,23.4,29.5,"18:00:56",1
"19/07/24","18:20",0.0,27.4,78.7,999.8,351.5,2.6,5.4,343.6,0.00,23.4,29.2,"18:14:40",1
"19/07/24","18:30",0.0,27.3,79.4,1000.0,338.6,2.5,5.4,343.3,0.01,23.5,29.0,"18:28:16",1
"19/07/24","18:40",0.0,27.2,80.0,1000.0,316.9,1.5,3.4,319.7,0.01,23.5,28.8,"18:30:32",1
"19/07/24","18:50",0.0,27.1,80.1,1000.3,324.4,1.3,3.1,341.0,0.00,23.4,28.9,"18:45:12",1
"19/07/24","19:00",0.0,27.3,80.0,1001.0,18.8,0.7,2.2,355.9,0.00,23.6,28.7,"18:54:32",1
"19/07/24","19:10",0.0,27.2,79.9,1001.0,328.6,1.3,2.4,321.1,0.00,23.5,28.5,"19:08:52",1
"19/07/24","19:20",0.0,27.1,80.5,1001.0,328.8,1.5,2.5,345.4,0.00,23.5,28.4,"19:18:24",1
"19/07/24","19:30",0.0,26.8,81.1,1001.0,333.6,1.8,2.9,337.7,0.00,23.3,28.5,"19:26:16",1
"19/07/24","19:40",0.0,26.6,81.7,1001.2,287.4,0.7,2.5,329.9,0.00,23.3,28.3,"19:30:24",1
"19/07/24","19:50",0.0,26.5,82.3,1001.2,313.1,1.5,3.4,344.6,0.00,23.3,28.2,"19:48:08",1
"19/07/24","20:00",0.0,26.5,83.0,1001.2,350.6,1.2,2.5,338.5,0.00,23.4,28.2,"19:53:12",1
"19/07/24","20:10",0.0,26.6,83.2,1001.5,347.5,1.0,1.7,11.1,0.00,23.6,28.3,"20:00:48",1
"19/07/24","20:20",0.0,26.5,83.6,1001.5,336.0,1.6,3.3,316.0,0.00,23.5,28.1,"20:17:20",1
"19/07/24","20:30",0.0,26.4,83.6,1001.7,332.5,1.6,3.6,338.5,0.00,23.4,27.7,"20:25:44",1
"19/07/24","20:40",0.0,26.2,84.0,1001.9,330.4,1.7,3.9,341.9,0.00,23.3,27.8,"20:37:52",1
"19/07/24","20:50",0.0,26.1,84.2,1002.2,332.2,2.2,4.8,342.8,0.00,23.3,27.6,"20:41:44",1
"19/07/24","21:00",0.0,26.1,84.4,1001.9,318.0,1.6,3.3,327.5,0.00,23.3,27.7,"20:52:48",1
"19/07/24","21:10",0.0,26.2,84.4,1002.4,338.5,1.5,3.5,337.6,0.00,23.4,27.5,"21:03:28",1
"19/07/24","21:20",0.0,26.1,84.6,1002.6,339.0,1.5,2.5,343.9,0.00,23.3,27.5,"21:15:20",1
"19/07/24","21:30",0.0,26.1,84.3,1002.2,334.9,2.3,3.6,339.9,0.00,23.3,27.4,"21:22:24",1
"19/07/24","21:40",0.0,26.2,84.2,1002.2,335.7,1.8,3.2,335.5,0.00,23.4,27.4,"21:30:32",1
"19/07/24","21:50",0.0,26.0,84.6,1002.2,339.8,2.2,3.6,336.4,0.00,23.2,27.2,"21:45:20",1
"19/07/24","22:00",0.0,26.0,84.7,1002.4,329.8,2.2,4.0,348.4,0.00,23.3,27.3,"21:50:32",1
"19/07/24","22:10",0.0,26.0,84.8,1002.2,331.3,1.6,3.3,338.1,0.00,23.3,27.1,"22:06:48",1
"19/07/24","22:20",0.0,25.9,85.1,1002.2,332.3,1.7,3.2,331.4,0.00,23.2,27.1,"22:17:44",1
"19/07/24","22:30",0.0,25.8,85.5,1002.4,340.1,1.1,2.9,343.6,0.00,23.2,27.2,"22:21:20",1
"19/07/24","22:40",0.0,25.7,86.0,1002.4,328.9,1.6,2.8,325.0,0.00,23.2,27.1,"22:30:02",1
"19/07/24","22:50",0.0,25.6,86.2,1002.4,327.3,1.3,2.2,343.0,0.00,23.2,27.0,"22:43:36",1
"19/07/24","23:00",0.0,25.6,86.6,1002.4,339.4,1.7,2.8,348.5,0.00,23.2,26.7,"22:50:40",1
"19/07/24","23:10",0.0,25.4,87.1,1002.9,335.1,2.1,3.4,339.4,0.00,23.1,26.7,"23:03:36",1
"19/07/24","23:20",0.0,25.4,87.4,1002.6,333.9,1.8,3.2,338.9,0.00,23.2,26.6,"23:14:16",1
"19/07/24","23:30",0.0,25.3,87.6,1002.9,337.1,1.6,2.8,341.7,0.00,23.1,26.7,"23:25:20",1
"19/07/24","23:40",0.0,25.2,87.8,1002.9,340.4,1.8,4.4,342.1,0.00,23.1,26.5,"23:34:00",1
"19/07/24","23:50",0.0,25.1,88.2,1002.9,355.7,0.7,2.8,327.7,0.00,23.0,26.7,"23:40:08",1
"19/07/24","24:00",0.0,24.9,88.5,1002.6,325.1,1.1,1.9,334.5,0.00,22.9,26.5,"23:54:16",1
